| time (UTC) | temp F | wind direction | speed knots | gust knots | rain 1hr in | rain 24hr in | rain mn in | humidity % | barometer mb |
| 20260503211508 | 80 | 80 | 3.5 | 8.7 | 0.00 | 0.00 | 0.00 | 24 | 1011.3 |
| 20260503210006 | 80 | 84 | 1.7 | 8.7 | 0.00 | 0.00 | 0.00 | 24 | 1011.4 |
| 20260503204504 | 79 | 69 | 1.7 | 7.0 | 0.00 | 0.00 | 0.00 | 25 | 1011.5 |
| 20260503203059 | 78 | 29 | 1.7 | 11.3 | 0.00 | 0.00 | 0.00 | 27 | 1011.6 |
| 20260503201555 | 78 | 84 | 1.7 | 8.7 | 0.00 | 0.00 | 0.00 | 30 | 1011.9 |
| 20260503200056 | 77 | 50 | 1.7 | 7.0 | 0.00 | 0.00 | 0.00 | 31 | 1012.1 |
| 20260503194558 | 77 | 80 | 2.6 | 7.8 | 0.00 | 0.00 | 0.00 | 32 | 1012.3 |
| 20260503193048 | 76 | 229 | 1.7 | 7.0 | 0.00 | 0.00 | 0.00 | 31 | 1012.5 |
| 20260503191547 | 77 | 65 | 2.6 | 8.7 | 0.00 | 0.00 | 0.00 | 31 | 1012.5 |
| 20260503190041 | 76 | 125 | 1.7 | 7.8 | 0.00 | 0.00 | 0.00 | 36 | 1012.6 |
| 20260503184537 | 74 | 103 | 2.6 | 7.8 | 0.00 | 0.00 | 0.00 | 35 | 1012.7 |
| 20260503183035 | 73 | 78 | 2.6 | 7.8 | 0.00 | 0.00 | 0.00 | 37 | 1012.7 |
| 20260503181533 | 73 | 113 | 2.6 | 9.6 | 0.00 | 0.00 | 0.00 | 36 | 1012.8 |
| 20260503180032 | 72 | 65 | 2.6 | 7.0 | 0.00 | 0.00 | 0.00 | 36 | 1012.8 |
| 20260503174528 | 71 | 96 | 2.6 | 11.3 | 0.00 | 0.00 | 0.00 | 39 | 1013.0 |
| 20260503173028 | 71 | 28 | 2.6 | 10.4 | 0.00 | 0.00 | 0.00 | 41 | 1013.2 |
| 20260503171524 | 70 | 123 | 2.6 | 9.6 | 0.00 | 0.00 | 0.00 | 40 | 1013.3 |
| 20260503081520 | 56 | 139 | 0.0 | 0.0 | 0.00 | 0.00 | 0.00 | 54 | 1013.6 |
| 20260503071506 | 60 | 138 | 0.0 | 0.9 | 0.00 | 0.00 | 0.00 | 47 | 1013.5 |
| 20260503054502 | 64 | 138 | 0.0 | 1.7 | 0.00 | 0.00 | 0.00 | 40 | 1013.4 |
| 20260503053002 | 64 | 134 | 0.0 | 2.6 | 0.00 | 0.00 | 0.00 | 39 | 1013.2 |
| 20260503051600 | 65 | 108 | 0.0 | 3.5 | 0.00 | 0.00 | 0.00 | 36 | 1013.2 |
| 20260503044600 | 66 | 148 | 0.0 | 2.6 | 0.00 | 0.00 | 0.00 | 35 | 1013.1 |
| 20260503043104 | 66 | 128 | 0.0 | 3.5 | 0.00 | 0.00 | 0.00 | 35 | 1012.9 |
| 20260503041558 | 66 | 192 | 0.9 | 3.5 | 0.00 | 0.00 | 0.00 | 36 | 1012.8 |
| 20260503040113 | 66 | 121 | 0.0 | 2.6 | 0.00 | 0.00 | 0.00 | 36 | 1012.6 |
| 20260503034558 | 67 | 150 | 0.9 | 4.3 | 0.00 | 0.00 | 0.00 | 36 | 1012.4 |
| 20260503033056 | 67 | 138 | 0.9 | 3.5 | 0.00 | 0.00 | 0.00 | 35 | 1012.3 |
| 20260503031605 | 68 | 127 | 0.9 | 3.5 | 0.00 | 0.00 | 0.00 | 35 | 1012.2 |
| 20260503030054 | 69 | 312 | 0.9 | 5.2 | 0.00 | 0.00 | 0.00 | 34 | 1012.2 |
| 20260503024555 | 69 | 157 | 1.7 | 7.0 | 0.00 | 0.00 | 0.00 | 34 | 1012.0 |
| 20260503023054 | 70 | 132 | 0.9 | 2.6 | 0.00 | 0.00 | 0.00 | 32 | 1012.0 |
| 20260503021553 | 70 | 74 | 1.7 | 6.1 | 0.00 | 0.00 | 0.00 | 34 | 1012.1 |
| 20260503020054 | 71 | 85 | 1.7 | 5.2 | 0.00 | 0.00 | 0.00 | 33 | 1012.1 |
| 20260503014607 | 71 | 234 | 2.6 | 8.7 | 0.00 | 0.00 | 0.00 | 31 | 1012.2 |
| 20260503013050 | 72 | 101 | 1.7 | 7.8 | 0.00 | 0.00 | 0.00 | 32 | 1012.2 |
| 20260503011555 | 72 | 67 | 1.7 | 7.8 | 0.00 | 0.00 | 0.00 | 31 | 1012.4 |
| 20260503010048 | 73 | 90 | 2.6 | 10.4 | 0.00 | 0.00 | 0.00 | 31 | 1012.3 |
| 20260503004548 | 74 | 89 | 3.5 | 8.7 | 0.00 | 0.00 | 0.00 | 29 | 1012.5 |
| 20260503003047 | 75 | 92 | 1.7 | 7.8 | 0.00 | 0.00 | 0.00 | 31 | 1012.4 |
| 20260503001555 | 75 | 268 | 2.6 | 8.7 | 0.00 | 0.00 | 0.00 | 32 | 1012.5 |
| 20260503000043 | 75 | 236 | 0.9 | 7.0 | 0.00 | 0.00 | 0.00 | 33 | 1012.6 |
| 20260502234543 | 75 | 195 | 2.6 | 10.4 | 0.00 | 0.00 | 0.00 | 32 | 1012.7 |
| 20260502233037 | 75 | 21 | 0.9 | 9.6 | 0.00 | 0.00 | 0.00 | 32 | 1012.9 |
| 20260502231536 | 75 | 239 | 2.6 | 10.4 | 0.00 | 0.00 | 0.00 | 33 | 1013.0 |
| 20260502230036 | 74 | 9 | 2.6 | 10.4 | 0.00 | 0.00 | 0.00 | 34 | 1013.3 |
| 20260502224533 | 74 | 277 | 1.7 | 8.7 | 0.00 | 0.00 | 0.00 | 35 | 1013.7 |
| 20260502223028 | 74 | 355 | 1.7 | 10.4 | 0.00 | 0.00 | 0.00 | 35 | 1013.8 |
| 20260502221526 | 74 | 112 | 3.5 | 10.4 | 0.00 | 0.00 | 0.00 | 34 | 1014.0 |
| 20260502220028 | 74 | 355 | 3.5 | 13.0 | 0.00 | 0.00 | 0.00 | 35 | 1014.1 |
| 20260502214523 | 73 | 283 | 1.7 | 12.2 | 0.00 | 0.00 | 0.00 | 38 | 1014.3 |
| 20260502213021 | 73 | 128 | 2.6 | 12.2 | 0.00 | 0.00 | 0.00 | 36 | 1014.5 |